Location: Treviso
(45.6669°N, 12.2430°E)
Time: 12:27:36
(UTC+01:00)

ACS3 Solar Sail - Visible Passes

Search period start: 08 November 2024 00:00
Search period end: 18 November 2024 00:00
Orbit: 962 x 1019 km, 97.5° (Epoch: 08 November)

Date Brightness Start Highest point End Pass type
(mag) Time Alt. Az. Time Alt. Az. Time Alt. Az.
08 Nov 3.4 17:37:11 11° ENE 17:39:31 13° NE 17:42:15 10° NNE visible
08 Nov 1.7 19:22:10 67° ENE 19:22:10 67° ENE 19:28:20 10° N visible
08 Nov 3.9 21:07:09 22° WNW 21:07:09 22° WNW 21:11:08 10° NW visible
09 Nov 3.0 18:06:48 20° ENE 18:08:13 21° ENE 18:12:42 10° NNE visible
09 Nov 1.9 19:51:47 72° WNW 19:51:47 72° WNW 19:57:35 10° NNW visible
09 Nov 4.5 21:36:45 12° WNW 21:36:45 12° WNW 21:38:38 10° WNW visible
10 Nov 2.4 18:36:20 32° ENE 18:36:57 33° ENE 18:42:27 10° N visible
10 Nov 2.8 20:21:18 44° WNW 20:21:18 44° WNW 20:26:32 10° NNW visible
11 Nov 3.6 17:22:41 10° ENE 17:23:24 10° NE 17:24:06 10° NE visible
11 Nov 1.9 19:05:45 53° ENE 19:05:45 53° ENE 19:11:48 10° N visible
11 Nov 3.6 20:50:43 27° WNW 20:50:43 27° WNW 20:55:04 10° NNW visible
12 Nov 3.2 17:50:07 15° ENE 17:51:44 17° ENE 17:55:30 10° NNE visible
12 Nov 1.8 19:35:04 77° N 19:35:04 77° N 19:40:51 10° NNW visible
12 Nov 4.2 21:20:01 16° WNW 21:20:01 16° WNW 21:22:54 10° NW visible
13 Nov 2.7 18:19:20 26° ENE 18:20:08 26° ENE 18:25:10 10° N visible
13 Nov 2.4 20:04:17 55° WNW 20:04:17 55° WNW 20:09:37 10° NNW visible
14 Nov 2.1 18:48:27 42° ENE 18:48:34 42° ENE 18:54:21 10° N visible
14 Nov 3.2 20:33:23 34° WNW 20:33:23 34° WNW 20:38:01 10° NNW visible
15 Nov 3.4 17:32:32 11° ENE 17:34:29 13° NE 17:37:10 10° NNE visible
15 Nov 1.8 19:17:27 65° NE 19:17:27 65° NE 19:23:13 10° N visible
15 Nov 3.9 21:02:23 21° WNW 21:02:23 21° WNW 21:05:56 10° NW visible
16 Nov 2.9 18:01:26 20° ENE 18:02:31 21° ENE 18:06:56 10° NNE visible
16 Nov 2.0 19:46:22 67° NW 19:46:22 67° NW 19:51:47 10° NNW visible
16 Nov 4.5 21:31:17 12° WNW 21:31:17 12° WNW 21:32:44 10° WNW visible
17 Nov 4.8 06:38:56 10° ENE 06:40:59 12° E 06:43:02 10° ESE visible
17 Nov 2.4 18:30:15 32° ENE 18:30:35 32° ENE 18:36:00 10° N visible
17 Nov 2.8 20:15:09 43° WNW 20:15:09 43° WNW 20:20:03 10° NNW visible
